RH
22 20 15 13 28 34 33 21 17 16 13 13 17 47 54 53 62 72 79 79 79 75 73 80 76 72 60 52 52 54 44 42 53 62 72 75 61 43 38 48 48 51 50
21 20 14 11 25 38 27 18 17 16 14 13 16 43 56 59 64 77 81 80 80 79 76 88 81 61 62 53 51 49 41 43 55 62 70 62 48 40 51 53 50 54 54
22 18 11 15 25 28 21 19 19 18 17 14 16 36 60 78 77 79 81 82 82 83 84 90 89 67 63 60 55 51 50 50 56 60 65 66 43 47 58 47 48 48 51
19 15 11 16 35 26 20 16 14 12 14 17 21 34 58 89 92 95 93 89 84 86 93 96 93 85 71 58 60 51 52 50 60 66 73 76 74 76 90 71 64 65 64
18 16 12 14 25 17 16 12 12 17 11 15 26 32 53 83 99 99 92 78 89 89 94 99 96 91 84 72 66 50 47 46 55 67 78 84 82 89 86 90 92 91 93
18 16 13 14 12 14 11 11 12 9 10 26 31 41 52 68 76 75 84 73 95 96 96 99 98 95 95 86 74 53 51 48 53 68 76 82 82 81 86 83 83 86 88
15 16 13 16 15 13 11 12 10 9 13 32 50 59 63 63 65 75 79 97 90 80 94 99 95 99 97 95 78 58 62 56 57 66 71 77 83 87 85 75 69 66 54
15 18 15 17 18 13 13 11 9 10 17 41 57 71 76 75 70 72 76 80 97 93 93 100 99 89 98 94 91 77 59 76 63 61 72 75 83 79 74 66 64 50 46
17 20 15 19 19 15 12 10 9 10 17 26 57 70 78 82 83 80 88 86 93 82 88 99 99 98 99 99 90 89 90 78 76 70 61 60 76 78 79 74 71 66 56
18 21 16 21 20 16 12 10 9 9 11 26 46 59 83 84 91 86 81 83 84 100 100 90 97 99 100 97 92 94 67 61 70 77 76 75 79 68 60 61 70 71 75
21 21 17 22 21 14 14 11 9 10 13 18 20 40 70 80 80 83 78 83 92 98 92 97 84 99 93 95 100 98 85 85 92 95 93 98 97 86 78 70 67 63 65
23 25 20 21 22 16 16 12 10 10 10 13 20 51 63 76 84 87 88 85 95 94 99 100 100 100 98 96 99 98 97 97 94 86 89 91 97 97 84 78 79 69 63
26 26 20 20 25 19 18 12 11 10 11 19 50 82 80 78 79 91 98 99 100 98 90 98 99 97 97 99 100 100 100 100 99 98 95 91 90 94 93 94 90 85 81
26 27 20 18 23 17 18 13 12 10 12 27 62 83 90 82 92 100 95 92 100 100 99 100 100 99 98 100 100 100 99 94 87 87 90 86 82 78 66 56 53 51 48
27 28 22 18 22 20 21 14 13 11 13 33 52 87 91 88 98 98 99 97 96 100 100 100 100 98 98 100 93 68 72 66 52 48 42 42 41 40 38 35 32 30 26
23 27 26 19 20 24 23 24 14 12 14 30 52 82 100 95 94 98 96 94 97 99 97 99 100 100 98 99 78 50 47 52 54 53 49 42 35 27 20 18 15 12 10
28 30 30 30 28 24 26 27 16 14 20 38 69 85 97 94 88 100 99 98 99 99 100 100 99 98 99 87 69 76 71 64 50 37 24 16 14 12 12 11 11 12 12
36 33 34 33 29 25 30 31 23 17 31 48 54 54 53 58 73 96 97 100 100 99 100 100 99 98 94 86 78 68 51 28 18 14 13 14 13 13 13 13 14 19 22
38 38 34 33 34 30 30 35 27 20 38 54 51 47 44 65 80 94 97 100 100 100 100 100 100 100 82 54 33 23 18 16 15 15 15 15 16 15 15 17 20 23 25
21 25 26 26 32 33 32 41 38 29 32 63 64 56 49 64 81 84 98 99 99 100 100 99 99 93 32 22 19 19 20 19 19 19 19 18 17 17 18 20 23 25 26
20 22 23 24 26 31 31 35 41 39 31 61 74 66 55 48 41 37 76 98 100 99 96 51 30 25 23 22 24 23 20 20 19 19 19 19 18 18 18 20 21 23 25
25 27 36 33 34 34 33 36 44 43 37 64 83 75 65 55 48 35 32 63 69 64 52 46 48 51 42 26 24 24 22 20 20 19 19 19 19 18 18 19 20 20 20
34 35 39 40 38 39 41 37 48 46 44 55 77 85 72 66 64 66 58 42 42 42 38 39 36 38 37 34 34 30 26 25 25 23 22 21 21 20 20 20 20 20 20
30 30 34 34 34 38 43 40 52 48 39 46 69 86 83 76 72 70 80 73 69 68 64 65 62 73 82 83 86 79 69 68 67 61 53 44 35 28 23 22 22 21 21
35 32 30 32 32 37 43 45 52 62 59 48 80 87 91 86 84 86 86 89 93 81 83 85 95 92 91 93 92 94 95 81 67 66 74 69 70 77 67 47 36 28 25
40 39 39 40 41 39 47 72 54 72 65 53 70 99 98 96 94 88 84 86 87 89 93 91 85 86 91 98 97 93 92 90 91 91 87 82 81 73 71 74 78 64 49
Wind_Speed
12 14 14 10 12 12 13 12 11 12 12 12 12 14 14 16 18 18 18 17 16 16 16 17 16 15 16 16 16 14 13 13 14 14 14 16 18 20 21 21 22 23 24
12 15 14 9 12 12 14 13 13 12 12 12 12 14 15 16 18 20 19 18 17 18 17 18 18 17 17 17 17 16 15 15 16 16 17 19 21 21 21 21 22 23 23
17 17 13 10 12 13 14 15 15 14 14 13 13 16 16 16 17 19 19 20 19 19 19 20 19 18 19 19 18 17 17 18 17 17 19 22 22 21 21 22 22 22 22
19 18 13 11 13 14 16 17 16 16 15 15 15 17 16 16 16 18 21 21 24 22 21 23 23 22 21 21 20 20 19 19 20 20 21 22 23 23 22 22 22 21 22
19 19 15 13 14 15 17 17 17 16 15 16 16 18 18 18 18 21 18 22 26 25 24 26 24 24 23 23 23 22 21 21 22 21 22 22 24 23 22 22 21 21 20
20 20 15 15 15 15 16 17 17 16 15 15 18 19 19 20 20 21 21 16 29 27 27 27 24 26 27 26 26 26 25 24 23 22 21 22 21 22 21 21 20 19 19
24 22 16 15 15 15 16 17 16 15 14 15 18 19 19 20 20 21 19 22 17 34 31 30 31 31 29 27 31 30 27 25 23 22 21 20 20 20 20 20 19 18 17
23 21 17 15 15 16 16 16 15 15 15 16 18 18 20 22 22 22 21 18 19 33 42 38 26 28 26 30 36 34 30 25 23 22 21 21 20 19 18 18 17 16 16
24 20 17 15 15 15 16 15 14 15 15 18 15 18 23 25 22 23 21 20 19 25 37 45 25 24 27 30 32 32 32 25 24 22 22 21 20 19 19 18 18 17 16
25 20 18 17 15 16 15 15 14 15 15 13 16 19 20 22 25 25 24 19 30 24 24 21 20 14 30 31 27 33 31 28 25 23 22 22 22 21 20 18 18 16 15
24 20 18 18 16 17 16 16 15 13 14 16 18 20 19 20 22 21 27 25 27 25 30 28 22 30 20 28 31 34 33 29 27 25 22 23 22 23 19 17 16 16 15
20 19 19 19 18 17 17 17 15 15 15 15 18 20 19 19 18 11 6 29 31 30 26 26 28 22 20 26 25 27 28 25 26 27 25 22 18 18 18 16 16 16 15
21 20 20 20 19 18 18 17 16 16 14 15 15 17 19 20 16 18 9 25 53 39 31 27 26 22 20 34 31 28 28 31 30 28 25 22 19 18 17 16 16 16 15
24 22 20 21 19 18 19 19 17 17 14 14 14 15 15 18 14 16 20 23 22 33 24 27 24 22 35 31 32 28 24 23 22 22 22 20 19 18 17 18 18 18 17
27 24 21 20 18 17 18 18 18 18 15 15 16 17 16 18 17 19 18 20 18 22 27 30 25 22 34 27 21 20 22 23 22 22 20 19 19 18 18 17 17 17 16
28 27 23 19 18 18 19 19 19 18 16 15 17 20 18 23 23 26 21 21 17 32 30 27 24 27 28 23 21 21 22 22 23 22 22 21 21 20 18 18 17 17 16
28 28 24 21 19 19 20 19 19 18 16 15 16 20 21 21 24 25 24 24 23 26 34 30 29 28 31 28 26 22 22 22 22 22 21 21 20 19 18 18 17 17 16
31 30 29 25 22 21 21 21 19 19 17 17 17 17 17 19 24 26 26 26 24 28 33 35 31 31 31 28 26 25 22 21 21 20 20 19 20 19 17 17 17 16 16
36 35 34 32 29 25 25 24 22 20 21 21 19 17 14 14 17 23 26 23 29 34 34 36 34 34 24 24 24 23 22 21 20 19 19 18 17 17 16 16 17 16 15
45 41 40 36 34 32 30 30 27 25 25 26 24 20 17 16 16 21 29 25 26 36 38 33 32 30 25 24 22 21 20 20 19 19 18 17 17 16 16 16 16 16 15
53 46 44 43 40 38 35 35 33 30 29 31 29 25 23 19 19 18 22 24 29 34 32 28 29 26 24 23 21 21 21 20 19 19 18 18 18 18 18 17 18 18 18
44 44 43 46 43 40 38 37 36 32 33 35 32 29 27 25 23 22 23 25 27 28 30 28 27 27 25 22 22 21 21 21 20 20 19 19 18 18 18 18 19 19 19
37 44 46 45 43 42 42 42 40 38 37 38 37 33 31 30 28 26 25 26 26 28 28 28 27 25 25 24 24 23 22 20 18 18 18 18 17 16 17 18 19 19 20
36 44 46 48 45 45 45 43 42 40 38 39 40 38 35 32 30 28 27 26 26 26 27 26 26 25 25 24 23 22 21 18 17 17 16 15 16 16 18 20 20 21 21
42 41 47 49 47 49 46 44 43 43 40 38 44 43 40 39 34 31 29 29 27 28 29 27 26 25 25 26 24 23 22 23 25 25 23 23 22 22 21 21 21 23 23
45 44 43 44 45 46 48 44 45 45 43 39 45 46 43 39 39 38 36 32 30 29 29 30 31 31 34 27 25 26 28 24 22 23 21 18 20 22 23 25 27 24 24
Wind_Direction
274 296 309 274 258 271 281 279 267 264 265 257 246 234 231 228 223 217 214 214 218 213 213 207 211 205 197 190 185 179 172 162 157 155 151 150 151 150 146 144 146 144 144
261 295 301 273 262 268 277 281 275 273 267 252 241 234 233 227 221 216 211 212 218 219 216 213 209 204 198 193 188 180 170 164 160 157 150 147 145 146 146 143 143 145 145
284 292 299 260 253 261 274 281 279 274 270 260 244 234 234 229 224 221 219 221 215 217 212 212 207 203 199 192 187 177 170 164 157 151 150 148 147 147 144 143 144 145 146
282 295 297 264 249 263 276 277 275 275 271 263 248 237 236 231 225 221 227 225 219 211 208 209 209 204 198 193 186 177 169 163 158 154 151 150 150 149 147 148 148 150 150
283 295 290 268 257 267 273 274 273 272 267 259 246 237 235 236 229 231 213 221 227 216 208 210 205 205 202 195 186 177 171 164 160 160 158 153 153 150 148 147 148 148 149
277 289 280 260 261 259 265 266 272 270 258 248 241 238 234 238 238 243 244 250 205 220 216 209 206 199 194 192 187 177 168 166 162 161 160 161 160 156 156 158 155 156 154
278 277 273 260 259 254 261 265 270 264 248 244 243 243 238 243 244 241 242 239 251 219 213 204 207 192 188 192 181 173 165 164 162 162 162 162 161 159 161 162 162 164 164
272 270 270 261 257 256 259 263 264 254 239 242 244 248 243 242 240 238 238 242 251 225 209 195 189 196 202 203 190 177 168 161 163 165 165 163 162 163 164 168 170 170 169
265 265 265 257 261 252 254 259 258 253 241 248 247 249 247 241 237 238 241 242 259 218 205 175 167 203 206 186 180 186 183 163 171 166 167 169 172 170 167 168 167 170 169
253 260 259 256 255 249 254 256 255 255 251 251 242 243 247 247 235 233 239 240 241 176 192 187 184 200 182 167 177 157 163 166 167 165 167 169 170 172 173 168 168 167 169
244 256 255 252 248 250 253 254 254 252 247 247 247 243 240 243 248 241 243 230 226 198 192 194 200 181 188 170 169 166 164 161 161 160 170 172 180 176 176 181 179 178 182
245 254 251 246 245 252 253 252 253 249 248 249 255 245 229 231 242 233 262 218 213 197 185 190 187 186 192 178 168 170 170 172 169 175 178 181 181 167 180 185 186 190 195
242 251 247 246 242 252 251 246 252 253 251 253 251 253 221 225 224 209 125 163 192 195 188 198 194 189 201 174 174 171 173 176 182 186 190 196 195 195 196 202 205 207 211
240 248 243 244 244 245 246 245 248 250 248 247 245 223 207 222 207 206 217 220 155 169 184 187 181 187 179 183 175 178 183 185 187 196 199 203 209 210 211 213 218 219 221
237 242 243 242 242 241 246 243 246 245 241 237 239 202 202 199 213 199 191 194 198 176 172 176 180 187 187 183 176 175 187 192 194 198 202 201 207 209 209 213 216 222 225
240 243 241 239 244 242 245 244 241 241 238 235 230 220 206 201 203 210 217 215 211 199 216 213 209 210 205 211 187 188 192 194 198 199 202 205 208 211 211 214 218 223 226
242 242 237 239 242 240 240 238 240 239 233 229 213 214 217 216 211 209 207 210 207 209 195 205 208 212 190 189 195 195 198 200 203 204 206 208 212 213 215 218 220 223 228
233 235 239 237 238 234 236 237 235 235 224 212 206 206 212 219 220 214 213 209 204 202 196 206 198 188 185 190 195 197 204 204 205 208 213 216 216 218 220 222 221 223 228
233 236 240 245 242 238 231 232 230 227 218 205 205 209 213 208 201 201 194 199 191 188 194 186 187 187 191 195 195 195 198 202 207 212 218 224 224 224 224 226 228 229 231
232 233 238 237 240 235 227 227 228 225 218 207 203 208 203 195 200 199 202 192 193 196 191 177 182 191 196 195 194 198 201 203 207 211 217 221 227 228 229 232 234 235 239
232 235 233 233 233 231 226 225 226 227 221 212 203 200 199 191 183 179 177 176 179 182 178 178 188 189 196 195 197 198 201 204 205 209 212 217 221 225 228 230 237 239 240
227 227 230 230 228 229 226 223 227 229 222 213 207 200 195 192 183 174 171 171 169 176 178 183 192 203 206 207 208 201 206 205 205 210 214 217 221 224 230 235 239 241 243
230 229 227 227 226 225 227 223 219 222 221 215 207 204 200 192 190 184 182 184 187 191 191 191 195 196 201 207 208 208 210 214 213 215 220 226 232 235 240 245 246 249 252
235 234 233 234 227 225 227 226 222 224 224 219 212 206 198 199 197 199 196 197 199 198 198 201 203 203 203 202 210 210 209 215 227 230 231 233 241 246 247 247 250 251 252
238 236 234 233 234 226 223 226 222 222 223 220 212 208 206 204 207 209 210 209 208 211 211 208 212 211 208 210 216 215 221 227 232 237 238 242 249 251 252 253 253 253 253
228 231 232 228 229 226 221 224 221 221 223 222 212 209 210 208 208 212 212 216 213 218 217 217 220 220 220 211 222 231 235 237 233 237 243 253 259 261 264 262 258 258 259